Regional Weather Roundup
Issued by NWS Kansas City/Pleasant Hill, MO

Home | Current Version | Previous Version | Graphics & Text | Print | Product List | Glossary Off
Versions: 1 2 3 4 5 6 7 8 9 10 11 12 13 14 15 16 17 18 19 20 21 22 23 24 25 26 27 28 29 30 31 32 33 34 35 36 37 38 39 40 41 42 43 44 45 46 47 48 49 50

000
ASUS43 KEAX 271711
RWREAX

WEATHER ROUNDUP FOR EASTERN KANSAS AND NORTHWEST MISSOURI
NATIONAL WEATHER SERVICE KANSAS CITY/PLEASANT HILL MO
1200 PM CDT FRI MAR 27 2015

KSZ040-057-103>105-MOZ028-029-037-043-271800-
...KANSAS CITY METROPOLITAN AREA...

CITY           SKY/WX    TMP DP  RH WIND       PRES   REMARKS
K.C. INTL      MOSUNNY   39  21  48 N13       30.26F WCI  31
K.C. DOWNTOWN  MOSUNNY   40  20  44 N9G17     30.27F WCI  34
LEES SUMMIT    SUNNY     39  20  46 N13G18    30.26F WCI  31
OLATHE - IXD   MOSUNNY   38  25  59 VRB7G17   30.27F WCI  33
OLATHE - OJC   MOSUNNY   38  23  55 N10       30.25F WCI  31
LAWRENCE       MOSUNNY   39  23  52 N12G18    30.28F WCI  32

$$

MOZ001>008-011>017-020>025-030>033-038>040-044>046-053-054-271800-
...NORTHERN AND CENTRAL MISSOURI...

CITY           SKY/WX    TMP DP  RH WIND       PRES   REMARKS
ST. JOSEPH     SUNNY     37  19  48 N12       30.29F WCI  29
MOSBY          SUNNY     37  19  48 N12       30.27S WCI  30
WARRENSBURG    MOSUNNY   37  21  52 NW12G18   30.25F WCI  30
WHITEMAN AFB   PTSUNNY   38  22  52 NW9G17    30.23F WCI  31
CLINTON        MOSUNNY   39  27  60 NW10G18   30.25F WCI  32
SEDALIA        MOSUNNY   39  25  57 NW9       30.23F WCI  33
WARSAW         NOT AVBL
MARSHALL       PTSUNNY   39  25  56 NW12      30.25F WCI  32
CHILLICOTHE      N/A     38  20  48 NW8       30.27S WCI  32
KIRKSVILLE     MOSUNNY   37  15  40 NW14      30.22F WCI  28

$$

MOZ041-047>049-056>058-063>065-088>090-097-271800-
...EASTERN AND SOUTHERN MISSOURI...

CITY           SKY/WX    TMP DP  RH WIND       PRES   REMARKS
ST. LOUIS INTL FLURRIES  38  23  55 N13       30.19S WCI  30
SPIRIT OF STL  CLOUDY    37  21  52 N8        30.20R WCI  31
COLUMBIA       PTSUNNY   38  22  52 N17       30.21F WCI  28
JEFFERSON CITY PTSUNNY   38  19  46 N12       30.23S WCI  30
ROLLA          CLOUDY    36  22  56 MISG      30.17S
LEBANON        MOSUNNY   37  30  75 N9        30.20S WCI  31
OSAGE BEACH    CLOUDY    39  23  52 NW8       30.21S WCI  34
SPRINGFIELD    CLOUDY    39  30  70 N13       30.20R WCI  31
BRANSON        CLOUDY    39  36  87 NW12      30.19R WCI  32
NEVADA         MOSUNNY   43  27  52 N12G20    30.25F
JOPLIN         PTSUNNY   43  28  55 N15       30.25S
WEST PLAINS    CLOUDY    40  30  67 MISG      30.16S

$$

IAZ060-094-KSZ022-034>040-054-083-096-NEZ052-066-093-271800-
...KANSAS...SOUTHEAST NEBRASKA AND IOWA...

CITY           SKY/WX    TMP DP  RH WIND       PRES   REMARKS
TOPEKA         SUNNY     41  24  51 N13       30.29F WCI  34
MANHATTAN      SUNNY     41  23  48 N10G18    30.28F WCI  35
EMPORIA        MOSUNNY   43  25  49 N12G21    30.26F
CHANUTE        PTSUNNY   43  27  53 N10       30.27S
WICHITA        PTSUNNY   43  27  53 VRB5      30.28S
OMAHA          CLOUDY    35  16  45 CALM      30.29F
LINCOLN        SUNNY     35  22  58 NW5       30.30F WCI  31
FALLS CITY     SUNNY     35  19  52 VRB5      30.29F WCI  31
LAMONI         MOSUNNY   37  16  42 N14G21    30.25S WCI  28
DES MOINES     MOSUNNY   36   8  31 VRB7      30.27S WCI  30

$$




USA.gov is the U.S. government's official web portal to all federal, state and local government web resources and services.